Location: Olsztyn
(53.7767°N, 20.4765°E)
Time: 21:54:39
(UTC+01:00)

Envisat - Visible Passes

Search period start: 01 December 2021 00:00
Search period end: 11 December 2021 00:00
Orbit: 764 x 766 km, 98.2° (Epoch: 01 December)

Date Brightness Start Highest point End Pass type
(mag) Time Alt. Az. Time Alt. Az. Time Alt. Az.
01 Dec 5.6 03:24:51 10° NE 03:28:12 17° E 03:31:33 10° SE visible
01 Dec 2.9 05:02:48 10° NNE 05:07:56 87° WNW 05:13:01 10° SSW visible
01 Dec 4.3 06:42:49 10° N 06:46:18 19° NW 06:49:47 10° W visible
01 Dec 4.8 16:24:28 10° SSW 16:29:08 36° W 16:33:50 10° NNW visible
02 Dec 3.8 04:26:01 10° NNE 04:30:59 50° E 04:35:55 10° S visible
02 Dec 3.7 06:05:22 10° N 06:09:50 32° WNW 06:14:17 10° WSW visible
02 Dec 6.1 17:30:06 10° WSW 17:32:06 12° W 17:34:06 10° WNW visible
03 Dec 5.0 03:49:32 10° NE 03:53:50 27° E 03:58:07 10° SSE visible
03 Dec 3.0 05:28:12 10° N 05:33:12 57° WNW 05:38:09 10° SW visible
03 Dec 5.5 16:50:40 10° SW 16:54:42 23° W 16:58:45 10° NW visible
04 Dec 5.8 03:13:47 10° NE 03:16:29 14° E 03:19:10 10° ESE visible
04 Dec 3.1 04:51:15 10° NNE 04:56:22 79° ESE 05:01:27 10° SSW visible
04 Dec 4.1 06:31:02 10° N 06:34:53 22° NW 06:38:43 10° WSW visible
04 Dec 4.4 16:12:40 10° S 16:17:30 43° W 16:22:22 10° NNW visible
05 Dec 4.2 04:14:31 10° NNE 04:19:21 41° E 04:24:09 10° SSE visible
05 Dec 3.5 05:53:42 10° N 05:58:22 37° WNW 06:03:01 10° SW visible
05 Dec 6.0 17:17:28 10° WSW 17:20:21 15° W 17:23:14 10° NW visible
06 Dec 5.3 03:38:12 10° NE 03:42:09 22° E 03:46:05 10° SE visible
06 Dec 2.9 05:16:35 10° N 05:21:40 68° WNW 05:26:42 10° SSW visible
06 Dec 4.5 06:56:55 10° NNW 06:59:51 16° NW 07:02:46 10° W visible
06 Dec 5.2 16:38:40 10° SSW 16:43:01 28° W 16:47:24 10° NNW visible
07 Dec 6.0 03:03:03 10° ENE 03:04:44 11° E 03:06:24 10° ESE visible
07 Dec 3.3 04:39:42 10° NNE 04:44:47 65° ESE 04:49:50 10° S visible
07 Dec 3.9 06:19:18 10° N 06:23:27 26° WNW 06:27:35 10° WSW visible
07 Dec 4.0 16:00:55 10° S 16:05:53 53° W 16:10:53 10° NNW visible
08 Dec 4.5 04:03:04 10° NNE 04:07:43 34° E 04:12:19 10° SSE visible
08 Dec 3.2 05:42:02 10° N 05:46:52 45° WNW 05:51:41 10° SW visible
08 Dec 5.8 17:05:09 10° SW 17:08:37 18° W 17:12:07 10° NW visible
09 Dec 5.5 03:26:56 10° NE 03:30:27 18° E 03:33:56 10° SE visible
09 Dec 2.9 05:05:01 10° NNE 05:10:07 82° WNW 05:15:12 10° SSW visible
09 Dec 4.3 06:45:04 10° N 06:48:27 18° NW 06:51:48 10° W visible
09 Dec 4.9 16:26:45 10° SSW 16:31:21 34° W 16:35:59 10° NNW visible
10 Dec 3.7 04:28:10 10° NNE 04:33:11 53° E 04:38:09 10° S visible
10 Dec 3.7 06:07:35 10° N 06:12:00 30° WNW 06:16:23 10° WSW visible
10 Dec 6.2 17:32:43 10° W 17:34:20 11° W 17:35:58 10° WNW visible
